{"data":{"norad_id":65916,"intl_designator":"2025-225G","name":"STARLINK-35521","alt_names":[],"object_type":"PAYLOAD","status":"ACTIVE","operator":null,"country":"US","launch_date":"2025-10-08","launch_site_code":"AFWTR","launch_vehicle":null,"mission":null,"orbit_class":"UNKNOWN","rcs_meters":null,"size_class":null,"mass_kg":null,"dimensions":null,"purposes":["comms"],"wikipedia_slug":null,"has_3d_model":false,"image_url":null,"decayed_at":null,"tle_current":{"epoch":"2026-05-25T02:01:43.131936Z","epoch_age_seconds":78472,"freshness":"FRESH","line1":"1 65916U 25225G   26145.08452699  .00017554  00000+0  60328-3 0  9997","line2":"2 65916  53.1579 170.8930 0000984  83.9871 276.1242 15.30206985 36107","mean_motion":15.30206985,"eccentricity":9.84e-5,"inclination_deg":53.1579,"raan_deg":170.893,"arg_perigee_deg":83.9871,"mean_anomaly_deg":276.1242,"bstar":0.00060328,"rev_number":3610,"period_min":94.104916139825,"perigee_km":474.5198457563,"apogee_km":475.86858133913,"semimajor_km":6853.3312135477,"source":"CELESTRAK","updated_at":"2026-05-25T13:38:20.986954Z"}}}